Hourly Data Report for June 27, 2021

CARIBOU POINT (AUT)
NOVA SCOTIA
Current Station Operator: ECCC - MSC

45°46'00.000" N
62°41'00.000" W
2.40 m
8200774
71415
WBK

Download Data

Hourly Data (June 2021)
Hourly Data Report for June 27, 2021
TIME
LST
Temp Definition
°C
Dew Point Definition
°C
Rel Hum Definition
%
Precip. Amount Definition
mm

Wind Dir Definition
10's deg

Wind Spd Definition
km/h
Visibility Definition
km
Stn Press Definition
kPa
Hmdx Definition


Wind Chill Definition


Weather Definition


00:00 19.6 18.0 91 0.0 20 14   102.15     LegendNANA
01:00 18.8 17.4 92 0.0 18 27   102.08     LegendNANA
02:00 19.8 18.1 90 0.0 20 19   102.03     LegendNANA
03:00 20.8 18.6 88 0.0 21 14   101.99 27   LegendNANA
04:00 20.8 19.1 90 0.0 20 18   101.93 28   LegendNANA
05:00 20.9 19.2 90 0.0 21 12   101.97 28   LegendNANA
06:00 20.9 19.5 92 0.0 20 12   101.93 28   LegendNANA
07:00 21.4 19.3 88 0.0 21 13   101.87 28   LegendNANA
08:00 22.3 19.3 83 0.0 21 14   101.85 29   LegendNANA
09:00 22.9 19.3 81 0.0 21 14   101.79 30   LegendNANA
10:00 23.2 19.3 79 0.0 21 17   101.79 30   LegendNANA
11:00 23.8 19.3 76 0.0 22 16   101.77 31   LegendNANA
12:00 25.0 19.9 73 0.0 22 22   101.73 32   LegendNANA
13:00 26.4 20.5 70 0.0 23 16   101.68 34   LegendNANA
14:00 26.1 20.5 72 0.0 24 13   101.67 34   LegendNANA
15:00 27.2 20.7 68 0.0 24 15   101.62 35   LegendNANA
16:00 26.4 20.5 70 0.0 23 16   101.53 34   LegendNANA
17:00 26.7 20.4 68 0.0 24 14   101.51 35   LegendNANA
18:00 25.6 20.4 73 0.0 22 13   101.46 34   LegendNANA
19:00 25.2 20.3 74 0.0 22 16   101.41 33   LegendNANA
20:00 24.5 20.0 76 0.0 23 14   101.41 32   LegendNANA
21:00 23.5 19.7 79 0.0 23 10   101.43 31   LegendNANA
22:00 23.0 19.3 79 0.0 24 11   101.39 30   LegendNANA
23:00 22.4 19.2 82 0.0 22 18   101.32 29   LegendNANA

Notes on Data Quality.

Legend

  • E = Estimated
  • M = Missing
  • NA = Not Available*
  • [empty] = Indicates an unobserved value
Date modified: